CAPE
7 3 3 12 0 0 0 0 0 0 0 3 3 6 3 3 1 0 0 2 0 3 24 0 0 0 0 0 0 0 0 0 0 1 0 0 0 0 0 0 0 0 0
0 9 19 0 0 0 0 0 0 0 1 1 2 0 1 0 1 1 0 1 0 0 9 11 0 9 0 0 0 0 0 0 2 2 3 7 0 0 0 0 0 0 0
2 4 20 0 0 0 0 0 0 0 0 0 0 0 0 1 1 1 2 0 0 0 1 18 5 15 21 0 0 0 0 0 0 3 0 0 0 0 0 0 0 0 0
0 1 25 0 0 0 0 0 0 0 0 0 0 0 0 3 4 1 1 1 0 1 0 3 0 14 25 8 0 0 0 0 7 2 2 0 0 1 0 0 0 0 0
0 0 28 8 0 0 0 0 0 0 0 1 0 0 1 1 0 1 2 1 0 0 0 0 6 2 33 10 2 0 1 0 2 0 0 0 0 0 0 0 0 0 0
0 5 5 9 0 0 0 0 0 0 0 5 2 0 0 0 1 1 1 0 0 0 0 0 13 8 0 0 0 0 4 0 1 0 0 0 0 0 0 3 2 0 0
3 1 0 0 0 0 0 0 0 0 0 0 3 0 0 0 0 0 0 0 0 0 0 0 0 1 0 0 25 9 10 4 0 2 0 0 0 0 0 0 0 0 0
0 5 5 4 0 0 0 0 0 0 0 0 0 1 0 0 0 0 0 0 0 0 0 0 0 0 0 0 5 76 36 1 0 4 9 11 7 0 1 7 20 18 9
1 11 1 0 0 0 0 0 0 0 0 0 1 0 0 0 0 0 0 0 0 0 0 0 0 0 0 2 1 2 28 47 19 7 4 29 24 50 59 40 37 23 0
31 38 44 9 0 0 0 0 0 0 0 0 0 0 0 0 0 0 0 0 0 0 1 0 0 0 0 4 24 22 11 3 1 29 47 37 29 29 26 25 22 6 0
9 21 13 7 0 0 0 0 0 0 0 0 0 0 0 0 0 0 0 0 0 0 0 0 0 0 0 0 0 8 18 15 15 9 15 16 21 29 20 14 24 14 7
0 0 0 13 41 7 0 0 1 0 0 0 0 0 0 1 2 0 0 0 0 0 0 0 0 0 0 0 0 0 0 0 8 14 9 0 2 10 11 2 1 2 0
0 0 0 0 0 0 18 1 0 0 0 0 0 0 0 0 0 0 0 0 0 0 0 0 0 0 0 0 0 0 0 0 0 0 0 0 0 0 0 0 0 0 0
0 0 0 0 0 0 0 0 0 0 0 0 0 0 0 0 0 0 0 0 0 0 0 0 0 0 0 0 0 0 0 0 0 0 0 0 0 0 0 0 0 0 0
0 0 0 0 0 0 0 0 0 0 0 0 0 0 0 0 0 0 0 0 0 0 0 0 0 0 0 0 0 0 0 0 0 0 0 0 0 0 0 0 0 2 7
0 0 0 0 0 0 0 0 0 0 0 0 0 0 0 0 0 0 0 0 0 0 0 1 1 1 0 0 0 0 0 0 0 0 0 0 0 0 0 0 0 0 0
0 0 0 0 0 0 0 0 0 0 0 0 0 0 0 0 1 1 1 0 0 0 0 1 0 0 0 0 0 0 0 0 0 0 0 0 0 0 0 0 0 0 0
0 0 0 0 0 0 0 0 0 0 0 0 0 0 0 2 1 0 0 1 1 1 0 0 0 0 0 0 0 0 0 0 0 0 0 0 0 0 0 0 0 0 2
0 0 0 0 0 0 0 0 0 0 0 2 2 0 1 3 1 1 1 0 0 1 1 0 1 1 0 0 0 0 0 0 0 0 0 0 0 0 0 0 0 7 15
0 0 0 0 0 0 0 0 0 0 0 1 2 0 0 1 3 4 3 3 4 0 0 26 7 7 3 0 0 0 0 0 0 0 0 0 0 0 0 0 4 7 19
0 0 0 0 0 0 0 0 1 1 2 0 0 1 1 2 3 5 5 7 5 2 0 0 10 12 14 9 4 1 0 1 0 2 9 9 6 10 8 8 13 14 3
0 0 0 0 1 2 2 5 6 1 0 0 0 0 0 3 3 5 3 6 5 3 7 8 12 10 8 5 8 4 3 6 7 14 8 3 3 3 4 4 3 2 1
0 0 0 0 2 2 2 6 3 1 1 1 2 2 1 1 2 4 4 5 5 5 5 5 6 5 3 3 2 4 5 5 8 1 0 1 1 1 1 1 0 0 1
0 0 0 0 1 2 2 2 1 0 0 2 2 1 1 1 1 0 1 3 3 3 3 3 2 2 0 2 1 0 0 0 0 0 2 2 1 2 0 0 0 0 0
0 1 1 1 2 2 2 0 0 0 1 1 1 2 1 0 0 0 0 0 0 1 2 2 2 2 3 1 1 1 0 0 1 0 0 1 1 0 0 0 0 0 0
1 0 3 2 1 1 1 1 0 0 0 0 0 0 0 0 0 0 0 0 1 1 1 1 0 0 1 1 1 1 2 1 1 0 0 0 0 0 0 0 0 0 0
CIN
-186 -128 -128 -417 -0 -0 -0 -0 -0 -8 -0 -2 -1 -2 -5 -23 -0 -0 -0 -52 -0 -51 -33 -0 -0 -0 -0 -0 -0 -0 -0 -0 -0 -21 -0 -0 -0 -0 -0 -0 -0 -0 -0
-0 -330 -417 -0 -0 -0 -0 -0 -0 -0 -5 -4 -3 -0 -0 -0 -0 -0 -0 -26 -0 -0 -50 -62 -0 -95 -0 -0 -0 -0 -0 -0 -60 -68 -18 -9 -0 -0 -0 -0 -0 -0 -0
-89 -136 -429 -0 -0 -0 -0 -0 -0 -0 -0 -10 -0 -0 -0 -0 -0 -0 -0 -0 -0 -11 -16 -50 -83 -61 -72 -0 -0 -0 -0 -0 -38 -67 -28 -0 -0 -0 -0 -0 -0 -0 -0
-0 -24 -441 -0 -0 -0 -0 -0 -0 -0 -0 -0 -0 -1 -0 -0 -1 -1 -0 -0 -4 -23 -0 -46 -27 -57 -69 -61 -28 -0 -0 -0 -61 -68 -48 -0 -7 -87 -0 -0 -0 -0 -0
-0 -8 -408 -445 -0 -0 -0 -0 -0 -0 -0 -0 -0 -0 -4 -0 -0 -0 -0 -0 -7 -0 -0 -0 -53 -75 -65 -53 -30 -0 -28 -0 -78 -0 -0 -0 -0 -0 -0 -0 -0 -0 -0
-0 -276 -323 -584 -0 -0 -0 -0 -0 -4 -0 -0 -0 -1 -1 -0 -0 -0 -0 -0 -0 -0 -0 -0 -57 -50 -0 -14 -0 -0 -30 -0 -25 -0 -0 -0 -0 -0 -0 -60 -35 -0 -0
-260 -273 -0 -34 -0 -0 -0 -0 -0 -0 -0 -0 -1 -2 -0 -0 -0 -0 -0 -0 -0 -0 -0 -0 -0 -19 -0 -13 -32 -41 -34 -74 -0 -61 -0 -0 -0 -0 -0 -0 -0 -0 -0
-0 -299 -354 -388 -52 -0 -0 -0 -0 -0 -0 -0 -0 -7 -2 -0 -0 -0 -0 -0 -0 -0 -0 -0 -0 -0 -0 -0 -19 -37 -61 -42 -0 -85 -67 -68 -52 -0 -69 -52 -35 -32 -42
-68 -284 -43 -50 -0 -0 -0 -0 -0 -0 -0 -1 -8 -0 -0 -0 -0 -0 -0 -0 -0 -0 -0 -12 -0 -0 -4 -57 -34 -74 -60 -42 -53 -72 -81 -67 -64 -56 -65 -56 -54 -28 -0
-221 -231 -265 -261 -0 -0 -0 -0 -0 -0 -0 -0 -2 -2 -0 -0 -0 -0 -0 -0 -0 -0 -73 -75 -0 -0 -0 -81 -68 -67 -79 -77 -41 -57 -65 -65 -68 -74 -70 -69 -72 -74 -0
-100 -282 -229 -349 -29 -0 -0 -0 -0 -0 -0 -0 -0 -7 -0 -0 -0 -0 -0 -0 -0 -0 -0 -0 -26 -0 -0 -0 -17 -72 -50 -50 -44 -51 -66 -70 -67 -68 -74 -73 -62 -68 -76
-0 -0 -0 -271 -276 -379 -0 -0 -0 -0 -0 -0 -0 -0 -0 -10 -8 -0 -0 -0 -0 -0 -0 -0 -0 -0 -0 -0 -0 -0 -0 -3 -41 -43 -52 -0 -56 -77 -89 -94 -21 -80 -0
-0 -0 -0 -0 -0 -0 -291 -309 -0 -0 -0 -0 -0 -0 -0 -0 -0 -0 -8 -0 -0 -0 -0 -0 -0 -0 -0 -0 -0 -0 -0 -0 -0 -0 -0 -0 -38 -0 -0 -0 -0 -0 -0
-0 -0 -0 -0 -0 -0 -0 -0 -0 -0 -0 -0 -0 -0 -0 -0 -0 -0 -0 -1 -0 -0 -0 -0 -0 -0 -0 -0 -0 -0 -0 -0 -0 -0 -0 -0 -0 -0 -0 -0 -0 -0 -0
-0 -0 -0 -0 -0 -0 -0 -0 -0 -0 -0 -0 -0 -0 -0 -0 -0 -0 -0 -0 -0 -0 -0 -0 -1 -0 -0 -0 -0 -0 -0 -0 -0 -0 -0 -0 -0 -0 -0 -0 -0 -136 -103
-0 -0 -0 -0 -0 -0 -0 -0 -0 -0 -0 -0 -0 -0 -0 -0 -0 -0 -0 -0 -0 -0 -0 -11 -1 -1 -0 -0 -0 -0 -0 -0 -0 -0 -0 -1 -0 -0 -0 -0 -0 -0 -0
-0 -0 -0 -0 -0 -0 -0 -0 -0 -0 -0 -0 -0 -0 -0 -0 -0 -0 -0 -0 -0 -0 -0 -1 -3 -0 -0 -0 -0 -0 -0 -0 -0 -0 -0 -0 -0 -0 -0 -0 -0 -0 -0
-0 -0 -0 -0 -0 -0 -0 -0 -0 -0 -0 -0 -0 -0 -0 -0 -0 -0 -0 -0 -0 -0 -0 -0 -0 -0 -0 -0 -0 -0 -0 -0 -0 -0 -0 -0 -0 -0 -0 -0 -0 -0 -0
-0 -0 -0 -0 -0 -0 -0 -0 -0 -0 -0 -0 -0 -0 -0 -0 -0 -0 -0 -0 -0 -0 -0 -0 -0 -0 -0 -0 -0 -0 -0 -0 -0 -0 -0 -0 -0 -0 -0 -0 -0 -0 -0
-0 -0 -0 -0 -0 -0 -0 -0 -0 -0 -0 -0 -0 -0 -0 -0 -0 -0 -0 -0 -0 -0 -0 -216 -263 -225 -251 -0 -0 -0 -26 -0 -0 -0 -0 -0 -0 -0 -0 -0 -0 -0 -0
-0 -0 -0 -0 -0 -0 -0 -0 -0 -0 -0 -0 -0 -0 -0 -0 -0 -0 -0 -0 -0 -0 -0 -0 -0 -0 -0 -0 -0 -0 -0 -0 -0 -0 -0 -0 -0 -0 -0 -0 -0 -0 -0
-0 -0 -0 -0 -0 -0 -0 -0 -0 -0 -0 -0 -0 -0 -0 -0 -0 -0 -0 -0 -0 -0 -0 -0 -0 -0 -0 -0 -0 -0 -0 -0 -0 -0 -0 -0 -0 -0 -0 -0 -0 -0 -0
-0 -0 -0 -0 -0 -0 -0 -0 -0 -0 -0 -0 -0 -0 -0 -0 -0 -0 -0 -0 -0 -0 -0 -0 -0 -0 -0 -0 -0 -0 -0 -0 -0 -0 -0 -0 -0 -0 -0 -0 -0 -0 -0
-0 -0 -0 -0 -0 -0 -0 -0 -0 -0 -0 -0 -0 -0 -0 -0 -0 -0 -0 -0 -0 -0 -0 -0 -0 -0 -0 -0 -0 -0 -0 -0 -0 -0 -0 -0 -0 -0 -0 -0 -0 -0 -0
-0 -0 -0 -0 -0 -0 -0 -0 -0 -0 -0 -0 -0 -0 -0 -0 -0 -0 -0 -0 -0 -0 -0 -0 -0 -0 -0 -0 -0 -0 -0 -0 -0 -0 -0 -0 -0 -0 -0 -0 -0 -0 -0
-0 -0 -0 -0 -0 -0 -0 -0 -0 -0 -0 -0 -0 -0 -0 -0 -0 -0 -0 -0 -0 -0 -0 -0 -0 -0 -0 -0 -0 -0 -0 -0 -0 -0 -0 -0 -0 -0 -0 -0 -0 -0 -0
Wind_Speed
10 3 4 6 6 8 8 8 9 11 12 14 15 14 12 9 7 11 15 16 18 18 16 15 15 15 15 15 15 12 13 12 11 11 10 11 8 6 5 5 4 5 5
9 5 5 7 8 9 8 9 11 13 13 14 14 4 12 7 7 14 18 18 19 21 20 18 16 16 16 15 15 14 13 13 13 15 12 14 14 14 12 9 8 7 7
14 8 9 11 9 9 10 9 11 12 14 14 14 9 5 0 5 12 15 19 25 26 21 17 17 18 17 16 15 15 14 16 15 12 12 13 17 14 15 11 10 9 10
18 12 10 13 12 10 10 10 11 13 14 14 15 18 17 15 21 26 23 17 23 26 18 16 17 17 17 16 16 15 14 14 16 14 13 12 14 16 18 19 13 12 11
22 18 15 16 11 10 10 10 11 13 13 15 16 18 17 18 18 20 24 18 27 22 20 16 17 14 18 16 16 15 14 13 15 16 12 18 19 15 17 17 15 17 17
23 20 11 8 9 9 9 10 10 11 13 14 16 18 18 19 20 22 19 26 18 17 14 14 16 16 13 13 17 18 15 13 17 21 19 19 18 17 17 17 18 15 17
20 15 12 12 9 11 9 10 10 10 12 13 15 17 17 18 21 22 26 32 28 27 18 14 15 17 15 19 30 16 16 18 18 21 16 18 17 19 19 18 22 26 27
18 16 15 11 9 9 10 10 11 9 10 12 14 15 17 17 19 22 24 27 31 31 27 20 20 21 17 18 21 16 15 16 17 18 18 18 19 17 18 21 20 22 24
14 15 13 8 7 9 13 12 10 9 9 10 12 14 13 16 17 19 19 21 24 28 30 31 30 28 24 24 26 25 22 18 19 18 16 15 19 21 20 18 19 21 30
12 11 9 11 8 7 7 7 7 7 7 7 8 9 12 12 14 16 21 19 21 24 24 26 26 24 22 22 20 17 19 19 20 19 19 20 20 21 22 22 24 25 28
10 9 8 9 9 5 2 4 4 2 3 5 5 7 10 12 13 15 18 20 21 23 21 23 24 25 24 23 24 20 17 22 21 20 20 20 20 22 23 22 23 24 27
3 5 6 7 7 7 7 8 10 5 1 1 3 5 8 11 12 13 14 16 17 18 22 20 18 21 23 24 25 28 26 25 25 21 22 23 23 24 23 25 25 26 26
8 7 6 5 9 12 13 10 12 16 17 12 7 4 6 8 10 11 10 12 16 16 17 21 23 21 20 21 22 23 24 25 24 24 24 25 26 25 26 27 28 29 31
9 9 9 9 11 13 15 15 16 19 24 13 12 10 7 7 8 9 10 12 14 15 17 19 21 23 24 25 25 23 24 25 26 26 27 27 27 27 27 28 29 30 33
8 10 10 12 14 16 17 19 20 22 24 16 12 14 17 20 17 15 14 14 14 15 16 17 19 20 22 24 25 26 26 26 27 27 27 28 28 29 28 29 30 31 33
8 11 14 15 16 19 21 21 23 24 24 23 24 26 23 22 20 21 19 19 18 18 20 21 22 22 23 25 26 26 25 26 27 28 28 29 29 30 31 31 31 32 32
8 10 15 19 20 22 23 24 25 26 27 28 29 29 30 30 31 27 24 23 23 24 22 22 24 25 27 27 28 29 29 28 29 30 32 33 33 32 32 33 32 33 34
13 15 18 20 23 24 25 25 25 27 28 29 31 33 34 33 34 35 35 33 27 27 27 27 26 27 28 28 29 30 31 33 33 33 33 34 34 33 32 32 31 32 36
14 16 19 21 24 26 27 27 28 28 29 30 32 34 36 38 40 40 40 41 43 43 32 30 32 32 31 30 30 31 33 36 37 37 38 37 37 36 33 32 33 33 33
17 19 22 23 25 27 27 28 29 31 32 33 34 34 36 38 40 42 45 44 44 48 49 40 38 37 37 38 36 33 34 38 39 39 41 40 41 39 35 35 35 35 32
21 22 23 25 27 28 28 29 30 32 33 34 35 35 36 37 38 40 41 44 46 47 44 39 38 39 41 42 42 38 36 37 37 38 38 39 37 34 32 31 31 30 24
23 24 25 26 28 28 28 29 31 32 33 34 34 36 37 37 37 38 39 39 39 39 37 35 36 36 37 38 38 36 34 32 32 32 30 27 25 24 24 23 19 17 18
24 24 25 26 27 28 29 30 32 32 32 32 33 34 35 37 37 38 39 38 36 34 33 32 32 33 33 32 30 28 25 22 22 21 20 15 17 18 18 20 18 22 15
25 25 26 27 28 29 29 30 31 31 31 31 32 33 34 36 36 36 36 36 35 32 30 29 28 28 27 28 26 25 22 18 17 16 14 15 12 19 11 14 16 16 16
25 26 26 27 28 29 29 30 30 29 30 30 31 32 32 33 34 34 35 33 33 30 27 26 24 25 25 23 21 18 20 16 13 12 13 15 15 15 19 14 16 15 18
24 25 26 26 27 28 29 30 30 29 28 29 30 30 30 30 30 30 31 34 33 31 28 24 20 19 18 16 16 16 12 13 11 14 14 16 16 15 16 15 16 17 19
Wind_Direction
174 164 140 121 103 98 88 83 101 115 122 134 138 140 147 160 202 229 229 210 219 219 212 207 195 204 187 184 183 205 189 210 224 230 249 262 258 234 228 221 225 227 239
169 168 147 136 131 117 101 95 109 124 132 137 142 191 148 157 228 238 236 221 217 229 230 223 205 201 206 199 187 201 218 229 220 240 246 258 270 267 264 258 255 238 249
175 172 163 153 138 127 116 105 112 121 132 137 137 134 133 303 258 195 199 220 232 234 234 219 210 201 217 202 206 198 216 229 227 230 257 270 273 274 274 259 257 254 250
180 173 162 158 153 135 116 106 110 120 127 133 141 155 161 154 170 171 172 202 231 234 234 218 212 215 218 215 212 220 206 229 222 248 256 274 282 280 283 280 266 261 253
180 175 171 164 153 140 126 115 109 117 123 128 137 147 148 150 143 150 160 175 228 236 234 222 204 214 228 225 214 225 217 223 228 244 253 265 269 284 293 294 287 280 276
180 176 172 160 151 143 130 125 115 115 123 127 131 138 143 144 139 148 150 162 186 229 225 216 210 218 219 211 189 202 222 212 237 248 264 258 264 275 286 291 293 293 295
177 176 171 166 155 152 144 135 126 120 126 129 135 137 136 140 146 147 151 158 165 169 174 192 195 187 203 198 215 193 222 237 236 250 255 261 262 274 281 286 288 287 289
176 179 171 170 166 151 150 143 138 126 129 133 138 142 143 142 146 150 151 159 172 176 175 177 180 183 194 194 195 219 227 235 233 248 260 261 266 267 275 282 286 291 294
183 175 174 183 161 153 152 151 144 136 135 137 139 145 145 149 150 153 155 163 171 179 180 182 184 186 187 187 190 194 199 210 217 222 239 241 262 269 273 272 278 283 295
189 181 181 160 154 158 150 145 143 140 138 141 143 145 150 157 161 161 171 173 177 179 180 185 187 189 194 198 201 212 215 219 223 243 240 257 262 265 268 271 277 279 287
239 240 245 261 275 289 180 147 146 132 135 153 159 157 159 162 168 177 181 183 183 185 185 187 190 194 197 201 205 212 228 215 221 237 248 237 249 262 269 269 272 275 282
338 287 271 287 299 310 311 302 302 300 288 205 192 183 171 172 174 180 184 188 189 190 193 194 198 200 202 204 207 210 213 218 222 238 250 239 263 262 265 273 270 274 277
35 35 30 343 335 322 308 308 302 294 296 297 290 260 213 203 198 198 201 196 198 203 205 204 208 210 214 216 220 224 225 226 234 244 249 248 262 256 266 268 273 278 282
44 29 20 5 356 341 334 331 320 309 294 289 283 275 249 239 239 238 226 220 216 216 215 218 220 219 220 220 221 227 233 237 242 250 249 251 258 256 262 270 271 277 282
33 10 355 355 351 346 340 331 323 319 318 307 288 282 283 284 284 279 268 258 245 239 244 242 234 237 237 229 228 230 235 241 244 251 249 248 251 253 259 271 274 280 282
348 350 347 353 348 344 333 330 323 317 318 319 313 298 290 287 280 279 275 273 265 257 258 251 252 249 244 238 236 241 249 249 253 252 257 262 263 256 257 260 262 273 278
341 335 332 338 342 341 335 332 326 323 315 311 308 306 300 300 290 286 281 273 267 271 264 260 262 256 257 248 245 244 250 258 261 260 266 269 270 267 270 272 269 276 280
326 317 324 328 333 327 332 335 332 329 325 318 308 304 301 300 297 294 292 284 278 273 266 264 260 262 264 254 254 252 255 261 260 264 266 267 268 269 267 272 276 279 286
334 331 328 327 325 326 327 330 332 333 330 325 320 313 304 298 295 295 294 290 286 283 274 268 268 268 266 263 264 261 267 268 267 269 271 271 272 271 268 269 274 279 285
330 329 329 327 326 326 327 330 328 327 326 325 323 320 316 308 301 297 293 292 291 287 283 279 277 275 274 278 274 270 270 271 273 276 276 277 274 273 268 267 270 273 277
328 328 326 326 327 328 329 329 327 324 322 322 324 325 322 317 314 310 304 297 294 292 292 285 284 285 285 282 282 278 273 272 272 275 279 282 281 277 276 276 273 271 272
330 329 327 327 329 330 329 328 327 324 324 324 325 326 325 323 321 317 314 311 306 302 298 291 289 290 291 293 289 285 282 283 276 278 281 286 290 291 295 289 276 273 279
329 334 333 332 336 334 332 328 327 327 327 327 328 328 330 330 327 324 321 319 318 313 307 300 295 294 296 297 300 299 291 288 287 287 301 302 291 293 306 302 297 300 282
329 334 333 333 333 333 333 331 330 332 334 334 334 335 336 337 338 335 333 328 324 321 317 311 305 302 302 301 300 302 301 296 296 300 311 309 325 329 307 317 314 321 309
329 334 332 331 331 333 334 336 336 336 337 338 339 339 340 341 343 347 346 342 343 336 328 325 319 310 307 311 312 305 304 307 309 313 320 304 323 316 316 338 327 323 328
333 332 332 333 332 333 335 339 341 343 344 342 342 343 344 346 347 347 350 358 358 358 359 357 354 353 353 348 345 343 337 342 326 329 315 317 327 327 314 331 331 333 333